EN

Hourly Weather Acatic

Today, 25 November, Wednesday

Time Temperature Precipitation Wind Pressure Humidity
00:00 +16°C° 0 mm 0 mps 623 mmHg 54%
01:00 +15°C° 0 mm 0 mps 623 mmHg 56%
02:00 +14°C° 0 mm 0 mps 623 mmHg 58%
03:00 +14°C° 0 mm 0 mps 623 mmHg 59%
04:00 +14°C° 0 mm 0 mps 623 mmHg 61%
05:00 +13°C° 0 mm 0 mps 623 mmHg 62%
06:00 +15°C° 0 mm 0 mps 624 mmHg 56%
07:00 +17°C° 0 mm 0 mps 625 mmHg 51%
08:00 +19°C° 0 mm 0 mps 626 mmHg 45%
09:00 +22°C° 0 mm 0 mps 627 mmHg 40%
10:00 +25°C° 0 mm 0 mps 627 mmHg 34%
11:00 +28°C° 0 mm 0 mps 628 mmHg 28%
12:00 +30°C° 0 mm 1 mps 627 mmHg 27%
13:00 +30°C° 0 mm 1 mps 626 mmHg 26%
14:00 +30°C° 0 mm 2 mps 625 mmHg 25%
15:00 +28°C° 0 mm 2 mps 625 mmHg 29%
16:00 +26°C° 0 mm 1 mps 624 mmHg 33%
17:00 +25°C° 0 mm 1 mps 624 mmHg 37%
18:00 +23°C° 0 mm 1 mps 624 mmHg 39%
19:00 +22°C° 0 mm 1 mps 624 mmHg 42%
20:00 +19°C° 0 mm 0 mps 624 mmHg 45%
21:00 +18°C° 0 mm 0 mps 624 mmHg 46%
22:00 +17°C° 0 mm 0 mps 624 mmHg 48%
23:00 +17°C° 0 mm 0 mps 623 mmHg 49%

Tomorrow, 26 November, Thursday

Time Temperature Precipitation Wind Pressure Humidity
00:00 +16°C° 0 mm 0 mps 623 mmHg 51%
01:00 +16°C° 0 mm 0 mps 623 mmHg 53%
02:00 +15°C° 0 mm 0 mps 622 mmHg 54%
03:00 +15°C° 0 mm 0 mps 622 mmHg 56%
04:00 +14°C° 0 mm 0 mps 622 mmHg 57%
05:00 +14°C° 0 mm 0 mps 622 mmHg 58%
06:00 +16°C° 0 mm 0 mps 623 mmHg 53%
07:00 +18°C° 0 mm 0 mps 624 mmHg 48%
08:00 +20°C° 0 mm 0 mps 625 mmHg 42%
09:00 +23°C° 0 mm 0 mps 626 mmHg 37%
10:00 +25°C° 0 mm 0 mps 626 mmHg 32%
11:00 +28°C° 0 mm 0 mps 627 mmHg 26%
12:00 +30°C° 0 mm 1 mps 626 mmHg 25%
13:00 +30°C° 0 mm 1 mps 625 mmHg 24%
14:00 +30°C° 0 mm 2 mps 625 mmHg 23%
15:00 +28°C° 0 mm 2 mps 624 mmHg 27%
16:00 +26°C° 0 mm 2 mps 624 mmHg 31%
17:00 +25°C° 0 mm 2 mps 623 mmHg 35%
18:00 +23°C° 0 mm 1 mps 623 mmHg 38%
19:00 +22°C° 0 mm 1 mps 623 mmHg 41%
20:00 +19°C° 0 mm 0 mps 623 mmHg 43%
21:00 +18°C° 0 mm 0 mps 623 mmHg 45%
22:00 +18°C° 0 mm 0 mps 623 mmHg 47%
23:00 +17°C° 0 mm 0 mps 623 mmHg 49%

Day after tomorrow, 27 November, Friday

Time Temperature Precipitation Wind Pressure Humidity
00:00 +16°C° 0 mm 0 mps 623 mmHg 52%
01:00 +16°C° 0 mm 0 mps 622 mmHg 54%
02:00 +15°C° 0 mm 0 mps 622 mmHg 56%
03:00 +15°C° 0 mm 0 mps 622 mmHg 58%
04:00 +14°C° 0 mm 0 mps 622 mmHg 60%
05:00 +14°C° 0 mm 0 mps 622 mmHg 62%
06:00 +16°C° 0 mm 0 mps 623 mmHg 56%
07:00 +18°C° 0 mm 0 mps 624 mmHg 51%
08:00 +20°C° 0 mm 0 mps 625 mmHg 45%
09:00 +22°C° 0 mm 0 mps 626 mmHg 39%
10:00 +25°C° 0 mm 0 mps 626 mmHg 33%
11:00 +28°C° 0 mm 0 mps 627 mmHg 27%
12:00 +30°C° 0 mm 1 mps 626 mmHg 26%
13:00 +30°C° 0 mm 1 mps 625 mmHg 25%
14:00 +30°C° 0 mm 2 mps 624 mmHg 24%
15:00 +29°C° 0 mm 2 mps 624 mmHg 27%
16:00 +27°C° 0 mm 2 mps 623 mmHg 31%
17:00 +25°C° 0 mm 2 mps 623 mmHg 35%
18:00 +24°C° 0 mm 1 mps 623 mmHg 37%
19:00 +22°C° 0 mm 1 mps 623 mmHg 40%
20:00 +19°C° 0 mm 0 mps 623 mmHg 43%
21:00 +20°C° 0 mm 1 mps 623 mmHg 44%
22:00 +19°C° 0 mm 1 mps 623 mmHg 46%
23:00 +19°C° 0 mm 1 mps 623 mmHg 48%

28 November, Saturday

Time Temperature Precipitation Wind Pressure Humidity
00:00 +16°C° 0 mm 0 mps 622 mmHg 50%
01:00 +15°C° 0 mm 0 mps 622 mmHg 53%
02:00 +15°C° 0 mm 0 mps 621 mmHg 55%
03:00 +14°C° 0 mm 0 mps 621 mmHg 57%
04:00 +14°C° 0 mm 0 mps 621 mmHg 58%
05:00 +14°C° 0 mm 0 mps 621 mmHg 59%
06:00 +16°C° 0 mm 0 mps 622 mmHg 54%
07:00 +18°C° 0 mm 0 mps 623 mmHg 48%
08:00 +20°C° 0 mm 0 mps 624 mmHg 43%
09:00 +22°C° 0 mm 0 mps 625 mmHg 37%
10:00 +25°C° 0 mm 0 mps 626 mmHg 32%
11:00 +30°C° 0 mm 1 mps 626 mmHg 26%
12:00 +30°C° 0 mm 1 mps 625 mmHg 25%
13:00 +30°C° 0 mm 2 mps 625 mmHg 23%
14:00 +30°C° 0 mm 2 mps 624 mmHg 22%
15:00 +28°C° 0 mm 2 mps 623 mmHg 25%
16:00 +27°C° 0 mm 2 mps 623 mmHg 29%
17:00 +25°C° 0 mm 2 mps 623 mmHg 32%
18:00 +23°C° 0 mm 1 mps 622 mmHg 34%
19:00 +22°C° 0 mm 1 mps 622 mmHg 36%
20:00 +21°C° 0 mm 1 mps 622 mmHg 38%
21:00 +20°C° 0 mm 1 mps 622 mmHg 41%
22:00 +19°C° 0 mm 1 mps 622 mmHg 44%
23:00 +18°C° 0 mm 1 mps 622 mmHg 46%

29 November, Sunday

Time Temperature Precipitation Wind Pressure Humidity
00:00 +16°C° 0 mm 0 mps 622 mmHg 51%
01:00 +15°C° 0 mm 0 mps 621 mmHg 55%
02:00 +14°C° 0 mm 0 mps 621 mmHg 59%
03:00 +14°C° 0 mm 0 mps 621 mmHg 63%
04:00 +13°C° 0 mm 0 mps 621 mmHg 67%
05:00 +13°C° 0 mm 0 mps 621 mmHg 72%
06:00 +15°C° 0 mm 0 mps 622 mmHg 66%
07:00 +16°C° 0 mm 0 mps 623 mmHg 61%
08:00 +18°C° 0 mm 0 mps 624 mmHg 56%
09:00 +23°C° 0 mm 1 mps 624 mmHg 48%
10:00 +25°C° 0 mm 2 mps 625 mmHg 41%
11:00 +27°C° 0 mm 2 mps 625 mmHg 34%
12:00 +28°C° 0 mm 3 mps 625 mmHg 31%
13:00 +28°C° 0 mm 3 mps 624 mmHg 28%
14:00 +29°C° 0 mm 4 mps 624 mmHg 25%
15:00 +27°C° 0 mm 3 mps 623 mmHg 29%
16:00 +26°C° 0 mm 3 mps 623 mmHg 33%
17:00 +24°C° 0 mm 2 mps 623 mmHg 36%
18:00 +21°C° 0 mm 2 mps 623 mmHg 40%
19:00 +21°C° 0 mm 1 mps 623 mmHg 45%
20:00 +19°C° 0 mm 1 mps 623 mmHg 49%
21:00 +19°C° 0 mm 1 mps 623 mmHg 53%
22:00 +18°C° 0 mm 1 mps 623 mmHg 58%
23:00 +16°C° 0 mm 1 mps 622 mmHg 62%

30 November, Monday

Time Temperature Precipitation Wind Pressure Humidity
00:00 +14°C° 0 mm 0 mps 622 mmHg 68%
01:00 +14°C° 0 mm 0 mps 622 mmHg 73%
02:00 +13°C° 0 mm 0 mps 621 mmHg 79%
03:00 +13°C° 0 mm 0 mps 621 mmHg 81%
04:00 +12°C° 0 mm 0 mps 621 mmHg 84%
05:00 +12°C° 0 mm 0 mps 621 mmHg 86%
06:00 +14°C° 0 mm 0 mps 622 mmHg 78%
07:00 +16°C° 0 mm 0 mps 623 mmHg 69%
08:00 +18°C° 0 mm 0 mps 624 mmHg 61%
09:00 +22°C° 0 mm 1 mps 625 mmHg 51%
10:00 +25°C° 0 mm 1 mps 625 mmHg 41%
11:00 +28°C° 0 mm 1 mps 626 mmHg 32%
12:00 +28°C° 0 mm 1 mps 625 mmHg 29%
13:00 +28°C° 0 mm 1 mps 625 mmHg 26%
14:00 +29°C° 0 mm 2 mps 624 mmHg 23%
15:00 +27°C° 0 mm 1 mps 624 mmHg 26%
16:00 +25°C° 0 mm 1 mps 623 mmHg 30%
17:00 +23°C° 0 mm 1 mps 623 mmHg 33%
18:00 +22°C° 0 mm 1 mps 623 mmHg 37%
19:00 +19°C° 0 mm 2 mps 624 mmHg 41%
20:00 +18°C° 0 mm 2 mps 624 mmHg 45%
21:00 +17°C° 0 mm 2 mps 624 mmHg 53%
22:00 +15°C° 0 mm 2 mps 624 mmHg 61%
23:00 +14°C° 0 mm 2 mps 623 mmHg 69%
Show more